Beidou DW 8

operational
NORAD ID: 37384 Int'l Des: 2011-013 Owner: CNSA Country: CN Constellation: BeiDou
HEOCIRCULARGSO

Beidou DW 8について

説明を読み込み中...

リアルタイム位置

3D地球を読み込み中...

次回通過

高度履歴

Altitude vs Time

uPlot chart will show altitude changes over time

軌道要素

1 37384U 11013A 25258.86031081 -.00000165 00000-0 00000-0 0 9993
2 37384 62.0271 42.7514 0036046 179.6513 188.3510 1.00291885 52916
Epoch: Sep 15, 2025 • Age: 25 hours

現在のステータス

高度 35925.3 km
速度 3.06 km/s
衛星直下点 15.33°N, 96.87°E
打ち上げ日 Apr 9, 2011
運用期間 14.4 years
タイプ navigation

技術仕様

分類 Payload
質量 2300.00 kg
乾燥質量 1300.00 kg
総質量 2300.00 kg
長さ 3.00 m
直径 1.70 m
スパン 18.00 m
形状 Box + 2 Pan
製造者 CAST
バスタイプ DFH-3
フェーズステータス In Orbit
所有者/国 CNSA/CN

大規模コンステレーション

Loading constellations...